Regional Weather Roundup
Issued by NWS Green Bay, WI

Home | Current Version | Previous Version | Graphics & Text | Print | Product List | Glossary Off
Versions: 1 2 3 4 5 6 7 8 9 10 11 12 13 14 15 16 17 18 19 20 21 22 23 24 25 26 27 28 29 30 31 32 33 34 35 36 37 38 39 40 41 42 43 44 45 46 47 48 49 50

000
ASUS43 KGRB 011859
RWRGRB

NORTH-CENTRAL AND NORTHEAST WISCONSIN REGIONAL WEATHER ROUNDUP
NATIONAL WEATHER SERVICE GREEN BAY WI
200 PM CDT WED APR 01 2015

WIZ005-009-010>012-018-019-012000-
NORTH CENTRAL WISCONSIN

CITY           SKY/WX    TMP DP  RH WIND       PRES   REMARKS
IRONWOOD       PTSUNNY   55  34  44 S14G25    29.65F
MANITOWISH WTR NOT AVBL
ARBOR VITAE    NOT AVBL
EAGLE RIVER    NOT AVBL
LAND O LAKES   NOT AVBL
RHINELANDER    MOSUNNY   57  31  37 S18G26    29.80F
PHILLIPS       NOT AVBL
ANTIGO         NOT AVBL
TOMAHAWK       NOT AVBL
MERRILL        NOT AVBL
$$

WIZ013-073-012000-
NORTHEAST WISCONSIN

CITY           SKY/WX    TMP DP  RH WIND       PRES   REMARKS
IRON MOUNTAIN  MOSUNNY   50  31  48 SE13      29.87F
MARINETTE      MOSUNNY   41  30  65 SE12      29.95F
$$

WIZ017-030-035>037-045-012000-
CENTRAL WISCONSIN

CITY           SKY/WX    TMP DP  RH WIND       PRES   REMARKS
MEDFORD        NOT AVBL
WAUSAU         MOSUNNY   61  34  36 S13G28    29.80F
MOSINEE        SUNNY     59  36  41 SE17G24   29.83F
MARSHFIELD     MOSUNNY   67  35  30 S20       29.78F
WISC RAPIDS    SUNNY     68  30  24 S14G26    29.82F
STEVENS POINT  NOT AVBL
WAUPACA        NOT AVBL
SHAWANO        NOT AVBL
CLINTONVILLE   NOT AVBL
$$

WIZ038-039-048-051-012000-
FOX VALLEY

CITY           SKY/WX    TMP DP  RH WIND       PRES   REMARKS
NWS GREEN BAY  MOSUNNY   56  38  50 SE16      29.92F
APPLETON       MOSUNNY   57  34  41 SE16        N/A
OSHKOSH        SUNNY     63  36  36 SE16G23   29.89F
FOND DU LAC    SUNNY     65  36  34 SE15      29.89F
$$

WIZ022-050-052-012000-
EAST CENTRAL WISCONSIN

CITY           SKY/WX    TMP DP  RH WIND       PRES   REMARKS
STURGEON BAY   PTSUNNY   45  34  65 SE14      29.98F
MANITOWOC      NOT AVBL
SHEBOYGAN      SUNNY     51  34  52 SE16G22   29.96F
$$

LMZ563-521-522-541>543-012000-
LAKESHORE

STATION/POSITION TIME  TEMP    WIND        PRES    VSBY  WAVE
                       AIR SEA DIR/SP/G                  HT/PER
                 (UTC) (F)     (DEG/KT/KT) (MB)    (MI)  (FT/S)
SHEBOYGAN LKSHOR 1800   36     150/  7/  8 1016.9F
KEWAUNEE LKSHORE 1800   37     150/  6/  9 1015.2F
TWO RIVERS CG    1800   37 36              1022.6      6   1
NORTHPORT PIER   1800   35     130/  7/ 10 1016.3F
SISTER BAY LKSHO 1800   50     180/ 10/ 16   N/A
STURGEON BAY CG  1800   37     140/  6     1019.2   3 1/2  3
CHAMBERS ISLAND  1800   42      80/  7/ 11 1015.2F
MENOMINEE LKSHOR 1800   33      30/  5     1015.9F
$$



USA.gov is the U.S. government's official web portal to all federal, state and local government web resources and services.